Location: Ozark
(37.5425°N, 88.7628°W)
Time: 11:51:47
(UTC+00:00)

Meteor 2-1 Rocket - Pass Details

Date: 26 January 2020
Orbit: 827 x 910 km, 81.3° (Epoch: 19 February)

Event Time Altitude Azimuth Distance (km) Brightness Sun altitude
Rises 12:29:39 0° 190° (S) 3,434 7.5 -7.1°
Reaches altitude 10° 12:32:06 10° 192° (SSW) 2,489 6.7 -6.6°
Maximum altitude 12:37:44 78° 279° (W) 869 4.2 -5.6°
Drops below altitude 10° 12:43:18 10° 6° (N) 2,456 6.5 -4.5°
Sets 12:45:43 0° 8° (N) 3,387 7.2 -4.1°
